User: anonymous   Login
Location: Unspecified
(0.0000°N, 0.0000°E)
Time: 03:55:38
(UTC+01:00)
Language:

Resurs 1-3 - Orbit

View from above orbital plane
View from above orbital plane
View from above satellite
View from above satellite

Ground track
Ground track

The orbit data is extracted from the following two-line orbital elements,

1 23342U 94074A   15058.56291977  .00000719  00000-0  10523-3 0  9994
2 23342 098.1585 077.3251 0000814 076.4393 037.6177 14.78781437 93522
Epoch (UTC): 27 February 2015 13:30:36
Eccentricity: 0.0000814
inclination: 98.1585°
perigee height: 632 km
apogee height: 634 km
right ascension of ascending node: 77.3251°
argument of perigee: 76.4393°
revolutions per day: 14.78781437
mean anomaly at epoch: 37.6177°
orbit number at epoch: 9352

The dashed part of the orbit path shows where the satellite is in the earth's shadow,  

DLR